Location: Pessina Cremonese
(45.1833°N, 10.2333°E)
Time: 06:51:26
(UTC+00:00)

Daily predictions for brighter satellites

Satellite Brightness Start Highest point End
(mag) Time Altitude Azimuth Time Altitude Azimuth Time Altitude Azimuth
Okean O Rocket 1.7 16:34:45 10° SSE 16:39:08 59° ENE 16:43:30 10° N
CZ-4B R/B 2.8 16:37:34 10° NE 16:40:12 21° E 16:42:47 10° SE
YAOGAN 6 3.7 16:37:34 10° S 16:41:00 48° W 16:44:30 10° NNW
SMAP 3.1 16:36:28 10° SSE 16:41:07 83° ENE 16:45:48 10° NNW
Cosmos 1626 2.1 16:38:08 10° S 16:41:49 89° W 16:45:32 10° N
SeaSat 1 4.2 16:38:00 10° N 16:42:06 27° NW 16:46:11 10° WSW
Cosmos 773 Rocket 4.1 16:37:07 10° NNW 16:42:10 51° ENE 16:47:09 10° SE
CZ-4B R/B 3.2 16:37:37 10° SSE 16:43:08 78° ENE 16:48:47 10° NNW
SL-24 R/B 4.1 16:39:25 10° SSE 16:43:43 74° ENE 16:48:19 10° N
Aureole 2 Rocket 4.2 16:45:14 10° ESE 16:46:30 12° E 16:47:46 10° ENE
AQUARIUS 4.2 16:43:33 10° SSE 16:48:03 85° ENE 16:52:34 10° NNW
Cosmos 2297 Rocket 4.5 16:46:07 10° W 16:49:32 16° NW 16:52:58 10° N
Cosmos 1603 3.9 16:45:34 10° NNW 16:51:18 81° WSW 16:57:02 10° SSE
Meteor 2-10 Rocket 4.2 16:46:53 10° N 16:51:58 35° ENE 16:56:49 10° SE
CZ-2D R/B 4.0 16:52:31 10° SE 16:55:56 31° ENE 16:59:21 10° N
Cosmos 1606 Rocket 3.5 16:52:55 10° N 16:57:17 64° E 17:01:40 10° SSE
YAOGAN 1 3.8 16:55:30 10° ESE 16:58:42 21° ENE 17:01:54 10° NNE
H-2A R/B 2.2 16:54:22 10° NNE 16:58:51 86° WNW 17:03:12 10° SSW
Cosmos 1892 Rocket 4.0 16:54:49 10° SSE 16:58:51 39° E 17:02:55 10° NNE
USA 234 4.2 16:53:16 10° ENE 16:58:52 32° N 17:04:29 10° NW
TELKOM 3 4.3 16:57:18 10° SSW 16:59:20 27° SE 17:01:03 14° E
FengYun 1-2 T 4.3 16:55:08 10° SSE 17:00:41 89° E 17:06:21 10° NNW
ATLAS 5 CENTAUR R/B 2.0 16:56:56 10° SW 17:00:53 57° NW 17:05:21 10° NNE
CZ-4C R/B 4.3 16:59:42 10° N 17:02:39 37° WNW 17:05:36 10° SW
SL-14 R/B 3.7 17:00:30 10° SSW 17:04:19 65° W 17:08:13 10° N
Helios 1A Rocket 4.3 17:01:43 10° ESE 17:04:35 18° ENE 17:07:27 10° NNE
RESURS DK-1 3.9 17:02:26 10° WSW 17:06:14 34° NW 17:10:03 10° NNE
MOS 1 Rocket 3.7 17:04:18 10° NNE 17:08:14 33° E 17:12:06 10° SSE
ATLAS 3B R/B 3.8 17:02:28 10° NW 17:09:11 51° WSW 17:16:09 10° SSE
Cosmos 2228 3.0 17:04:59 10° N 17:09:16 85° W 17:13:33 10° S
BREEZE-M DEB (TANK) 4.2 17:08:18 10° W 17:10:42 23° SSW 17:13:30 10° SSE
Cosmos 2142 Rocket 4.5 17:05:12 10° N 17:11:24 89° ENE 17:17:31 10° S
Meteor 2-5 Rocket 4.0 17:07:40 10° SSW 17:13:13 69° WNW 17:18:45 10° N
SKYMED 2 3.7 17:09:57 10° NNE 17:14:13 52° E 17:18:27 10° S
CZ-4C R/B 3.7 17:10:13 10° W 17:14:47 29° NNW 17:20:08 10° NNE
Cosmos 1538 Rocket 4.0 17:10:46 10° NNW 17:15:53 58° ENE 17:20:58 10° SE
Aureole 3 4.1 17:13:14 10° NNE 17:16:02 21° ENE 17:18:31 10° ESE
SJ 16-02 2.3 17:12:24 10° SSE 17:16:10 28° E 17:18:57 15° NE
CZ-3B R/B 2.7 17:15:05 10° NNW 17:17:20 28° NNE 17:20:09 16° E
Nadezhda 4 Rocket 4.3 17:11:39 10° SSE 17:17:30 43° E 17:23:19 10° NNE
Cosmos 1777 Rocket 4.0 17:14:08 10° SSW 17:19:23 77° ESE 17:24:41 10° NNE
YAOGAN 3 4.5 17:17:08 10° SSE 17:21:28 77° ENE 17:25:51 10° N
Cosmos 2263 Rocket 3.1 17:15:59 10° SW 17:21:29 49° WNW 17:26:59 10° NNE
Cosmos 1455 2.8 17:23:14 10° N 17:26:44 34° ENE 17:30:14 10° SE
Cosmos 2058 Rocket 3.0 17:24:15 10° N 17:28:45 67° E 17:33:13 10° SSE
Cosmos 1300 4.3 17:27:19 10° NNW 17:30:54 38° W 17:34:27 10° SSW
Cosmos 1703 4.5 17:29:01 10° SE 17:31:37 22° E 17:31:37 22° E
X-37B 1.9 17:29:24 10° SW 17:32:12 29° SSE 17:33:14 23° ESE
Meteor 2-13 Rocket 4.5 17:29:58 10° S 17:35:54 57° E 17:41:55 10° NNE
ARGOS 3.6 17:32:06 10° SE 17:36:56 36° ENE 17:41:49 10° N
Cosmos 44 4.5 17:36:20 10° SSE 17:40:00 23° ESE 17:40:18 22° ESE
Okean 1-7 Rocket 3.5 17:35:50 10° S 17:40:20 74° E 17:44:55 10° NNE
CREW DRAGON DEMO-1 DEB 3.7 17:39:11 10° NW 17:41:51 31° NNE 17:41:52 31° NNE
Lacrosse 5 1.9 17:37:06 10° NW 17:42:07 58° NE 17:45:00 24° ESE
NOSS 3-1 (C) 4.5 17:35:43 10° NNW 17:42:29 40° NE 17:47:11 22° E
Cosmos 1939 Rocket 4.0 17:40:07 10° S 17:44:07 48° W 17:48:06 10° NNW
Cosmos 1726 Rocket 4.5 17:39:58 10° NNW 17:44:13 51° W 17:48:28 10° S
ISS -3.4 17:41:01 10° SW 17:44:17 51° SE 17:45:00 41° ESE
ERS-2 2.0 17:42:03 16° NNE 17:44:52 70° ESE 17:48:29 10° S
CZ-2C R/B 3.5 17:45:49 27° E 17:46:37 28° E 17:51:20 10° SSE
CSL-04 Debris 4.4 17:41:55 10° SE 17:46:59 44° ENE 17:52:05 10° N
PSLV R/B 3.9 17:43:31 13° NNE 17:47:15 61° ESE 17:51:25 10° S
EXPRESS MD2 4.1 17:39:41 10° WNW 17:47:48 82° SSW 17:50:21 24° ESE
COSMOS 2455 2.9 17:42:47 10° SW 17:48:50 81° WNW 17:54:02 15° NNE
Cosmos 1626 Rocket 3.7 17:47:22 10° SSE 17:51:35 50° E 17:54:01 23° NNE
Cosmos 1844 3.7 17:48:12 10° S 17:53:42 58° ESE 17:57:10 23° NE
Cosmos 2026 Rocket 4.3 17:49:02 10° SSE 17:54:36 39° E 18:00:17 10° NNE
IRS-1C Rocket 4.2 17:49:35 10° S 17:54:50 76° WSW 18:00:07 10° NNW
Cosmos 1833 Rocket 4.1 17:51:20 10° N 17:54:41 20° NE 17:54:41 20° NE
Cosmos 990 Rocket 4.5 17:50:46 10° SSE 17:55:30 36° ESE 17:56:18 34° E
CZ-4 R/B 1.3 17:52:13 10° SSE 17:56:21 89° E 18:00:25 10° NNW
Cosmos 2082 Rocket 4.1 17:54:11 10° N 17:55:55 13° NNE 17:55:55 13° NNE
NOAA 15 4.5 17:52:24 10° SSE 17:57:39 80° ENE 18:02:56 10° NNW
USA 229 DEB 4.4 17:52:45 10° NNW 17:59:22 37° NE 18:01:49 30° ENE
USA 229 4.5 17:52:52 10° NNW 17:59:27 37° NE 18:01:52 30° ENE
COSMO-SKYMED 1 3.5 17:58:07 10° N 18:02:19 48° WNW 18:06:29 10° SW
DMSP B5D1-3 4.4 18:01:30 16° NNE 18:05:31 63° ESE 18:10:34 10° S
USA 267 3.9 18:04:12 31° E 18:06:00 36° SE 18:11:55 10° SSW
CZ-4B R/B 3.7 18:09:36 10° NNW 18:12:22 23° WNW 18:15:03 10° WSW
Okean-O 2.8 18:08:04 10° S 18:12:29 71° WSW 18:16:55 10° NNW
CZ-2C R/B 4.0 18:08:57 10° S 18:14:02 50° W 18:19:26 10° NNW
NOSS 3-1 (A) 4.5 18:08:14 10° NNW 18:15:02 40° NE 18:16:57 35° ENE
Cosmos 1844 Rocket 2.7 18:10:04 10° SSW 18:15:44 79° WNW 18:19:24 23° NNE
H-2A R/B 2.0 18:11:27 10° S 18:16:25 78° WSW 18:21:32 10° NNW
Cosmos 923 Rocket 3.9 18:12:14 10° NNW 18:17:37 86° ENE 18:22:55 10° SSE
Meteor 1-21 Rocket 4.1 18:12:38 10° SSW 18:18:09 84° W 18:23:45 10° N
Aureole 2 Rocket 3.7 18:16:22 10° SW 18:19:07 32° WNW 18:19:29 31° NW
Cosmos 1689 Rocket 3.5 18:20:00 35° WSW 18:20:00 35° WSW 18:21:59 10° SSW
Cosmos 2195 Rocket 4.4 18:13:51 10° S 18:20:07 73° E 18:26:28 10° NNE
Cosmos 158 Rocket 4.1 18:17:39 10° NNW 18:23:00 79° WSW 18:28:23 10° SSE
Meteor 2-8 Rocket 4.3 18:17:17 10° N 18:23:22 72° E 18:29:27 10° SSE
Cosmos 1898 Rocket 3.6 18:18:50 10° S 18:23:42 55° ESE 18:23:42 55° ESE
Cosmos 2278 Rocket 4.4 18:20:21 10° SSE 18:20:26 10° SSE 18:20:26 10° SSE
Cosmos 1680 Rocket 3.3 18:19:45 10° NNW 18:25:01 77° ENE 18:26:36 46° SE
Cosmos 1627 Rocket 4.3 18:23:51 10° S 18:29:59 77° E 18:36:15 10° N
Cosmos 2098 Rocket 4.3 18:24:22 10° S 18:31:17 64° E 18:38:38 10° NNE
Cosmos 1602 Rocket 3.5 18:27:18 10° S 18:31:34 83° W 18:31:34 83° W
Cosmos 1818 3.9 18:27:33 10° SW 18:32:55 62° NW 18:34:52 38° NNE
YAOGAN 1 3.8 18:30:25 10° S 18:34:31 42° W 18:38:39 10° NNW
Cosmos 1428 Rocket 4.3 18:28:44 10° S 18:34:59 78° E 18:41:20 10° N
CSL-04 Rocket 3.8 18:32:51 10° S 18:38:14 76° WSW 18:43:44 10° NNW
Helios 1A Rocket 4.0 18:35:27 10° S 18:39:24 45° W 18:43:24 10° NNW
USA 234 3.6 18:40:19 45° NE 18:41:00 47° NNE 18:47:11 10° NW
Cosmos 1092 Rocket 4.2 18:39:00 10° SSW 18:45:10 69° W 18:51:20 10° N
ATLAS 5 CENTAUR R/B 4.0 18:44:14 10° NW 18:46:39 14° NNW 18:47:37 13° N
Iridium 4 Rocket 3.8 18:41:30 10° N 18:47:12 70° W 18:52:25 10° S
SJ 16-02 3.1 18:50:46 10° SW 18:54:40 30° WNW 18:55:59 25° NNW
Cosmos 2344 4.2 18:45:42 10° NW 18:54:59 72° NE 18:59:35 43° ESE
Cosmos 2112 Rocket 4.4 18:57:15 10° NNW 19:02:18 60° W 19:02:18 60° W
CZ-4C R/B 4.5 19:02:05 10° NW 19:05:36 16° N 19:06:30 15° N
X-37B 4.2 19:05:26 10° WSW 19:05:31 11° WSW 19:05:31 11° WSW
COSMOS 2406 4.4 19:11:37 10° NNW 19:14:49 34° NNW 19:14:49 34° NNW
Lacrosse 5 3.5 19:20:28 10° WNW 19:24:15 29° WSW 19:24:15 29° WSW
CZ-2C R/B 3.6 19:27:19 46° WNW 19:27:19 46° WNW 19:32:22 10° SW
NOSS 3-1 (C) 4.2 19:26:23 10° NW 19:33:57 69° WSW 19:34:40 66° SSW
Cosmos 2082 Rocket 4.4 19:36:43 10° NNW 19:37:48 16° NNW 19:37:48 16° NNW
USA 267 4.1 19:51:34 44° WSW 19:51:34 44° WSW 19:55:51 10° WSW
USA 229 DEB 4.4 19:43:34 10° NW 19:49:18 56° WNW 19:49:18 56° WNW
USA 229 4.4 19:43:40 10° NW 19:49:21 55° WNW 19:49:21 55° WNW
